Time,TemperatureF,DewpointF,PressureIn,WindDirection,WindDirectionDegrees,WindSpeedMPH,WindSpeedGustMPH,Humidity,HourlyPrecipIn,Conditions,Clouds,dailyrainin,SoftwareType,DateUTC
2013-03-05 00:00:00,29.5,12.7,30.07,East,94,4.0,7.8,49,0.00,,,0.00,VWS V14.01,2013-03-05 05:00:00,
2013-03-05 00:01:00,29.5,12.7,30.07,East,94,0.0,7.8,49,0.00,,,0.00,VWS V14.01,2013-03-05 05:01:00,
2013-03-05 00:03:00,29.5,12.7,30.07,East,88,0.0,0.0,49,0.00,,,0.00,VWS V14.01,2013-03-05 05:03:00,
2013-03-05 00:04:00,29.5,12.7,30.07,ESE,109,4.7,8.9,49,0.00,,,0.00,VWS V14.01,2013-03-05 05:04:00,
2013-03-05 00:09:00,29.5,12.2,30.07,East,83,3.4,7.8,48,0.00,,,0.00,VWS V14.01,2013-03-05 05:09:00,
2013-03-05 00:16:00,29.3,12.1,30.07,ENE,75,4.7,7.8,48,0.00,,,0.00,VWS V14.01,2013-03-05 05:16:00,
2013-03-05 00:21:00,29.3,11.6,30.07,East,99,4.0,7.8,47,0.00,,,0.00,VWS V14.01,2013-03-05 05:21:00,
2013-03-05 00:27:00,29.3,11.6,30.07,ESE,109,4.0,6.7,47,0.00,,,0.00,VWS V14.01,2013-03-05 05:27:00,
2013-03-05 00:32:00,29.3,12.1,30.07,ESE,109,4.0,6.7,48,0.00,,,0.00,VWS V14.01,2013-03-05 05:32:00,
2013-03-05 00:38:00,29.1,11.9,30.07,East,81,4.0,6.7,48,0.00,,,0.00,VWS V14.01,2013-03-05 05:38:00,
2013-03-05 00:43:00,29.1,11.9,30.07,East,98,4.0,6.7,48,0.00,,,0.00,VWS V14.01,2013-03-05 05:43:00,
2013-03-05 00:48:00,29.3,12.5,30.07,East,99,4.0,6.7,49,0.00,,,0.00,VWS V14.01,2013-03-05 05:48:00,
2013-03-05 00:53:00,29.1,12.4,30.07,ESE,116,4.0,6.7,49,0.00,,,0.00,VWS V14.01,2013-03-05 05:53:00,
2013-03-05 00:59:00,29.1,12.4,30.04,ESE,117,5.4,8.9,49,0.00,,,0.00,VWS V14.01,2013-03-05 05:59:00,
2013-03-05 01:04:00,29.1,12.8,30.04,ESE,112,4.7,10.1,50,0.00,,,0.00,VWS V14.01,2013-03-05 06:04:00,
2013-03-05 01:09:00,29.1,12.8,30.04,ESE,120,3.4,7.8,50,0.00,,,0.00,VWS V14.01,2013-03-05 06:09:00,
2013-03-05 01:14:00,29.3,13.0,30.04,East,79,4.0,8.9,50,0.00,,,0.00,VWS V14.01,2013-03-05 06:14:00,
2013-03-05 01:20:00,29.3,13.0,30.04,ENE,60,4.7,8.9,50,0.00,,,0.00,VWS V14.01,2013-03-05 06:20:00,
2013-03-05 01:26:00,29.3,13.0,30.04,ESE,119,6.0,10.1,50,0.00,,,0.00,VWS V14.01,2013-03-05 06:26:00,
2013-03-05 01:31:00,29.1,12.8,30.04,ESE,106,3.4,8.9,50,0.00,,,0.00,VWS V14.01,2013-03-05 06:31:00,
2013-03-05 01:37:00,29.1,12.8,30.04,ESE,109,4.7,10.1,50,0.00,,,0.00,VWS V14.01,2013-03-05 06:37:00,
2013-03-05 01:42:00,29.1,12.4,30.04,East,98,5.4,10.1,49,0.00,,,0.00,VWS V14.01,2013-03-05 06:42:00,
2013-03-05 01:47:00,29.1,12.8,30.04,ESE,106,6.0,10.1,50,0.00,,,0.00,VWS V14.01,2013-03-05 06:47:00,
2013-03-05 01:53:00,29.1,12.8,30.04,ESE,111,5.4,10.1,50,0.00,,,0.00,VWS V14.01,2013-03-05 06:53:00,
2013-03-05 01:58:00,29.1,12.8,30.04,ESE,108,5.4,12.3,50,0.00,,,0.00,VWS V14.01,2013-03-05 06:58:00,
2013-03-05 02:03:00,29.1,12.4,30.04,ESE,103,6.0,12.3,49,0.00,,,0.00,VWS V14.01,2013-03-05 07:03:00,
2013-03-05 02:09:00,29.1,12.8,30.04,ESE,111,5.4,8.9,50,0.00,,,0.00,VWS V14.01,2013-03-05 07:09:00,
2013-03-05 02:14:00,29.1,12.8,30.04,East,96,6.0,10.1,50,0.00,,,0.00,VWS V14.01,2013-03-05 07:14:00,
2013-03-05 02:20:00,29.1,12.8,30.04,ESE,105,5.4,8.9,50,0.00,,,0.00,VWS V14.01,2013-03-05 07:20:00,
2013-03-05 02:26:00,29.1,12.8,30.04,ESE,113,6.0,10.1,50,0.00,,,0.00,VWS V14.01,2013-03-05 07:26:00,
2013-03-05 02:32:00,29.1,12.8,30.04,ESE,118,5.4,12.3,50,0.00,,,0.00,VWS V14.01,2013-03-05 07:32:00,
2013-03-05 02:37:00,29.1,13.3,30.04,ESE,113,6.0,13.4,51,0.00,,,0.00,VWS V14.01,2013-03-05 07:37:00,
2013-03-05 02:42:00,29.1,13.3,30.01,East,101,6.0,10.1,51,0.00,,,0.00,VWS V14.01,2013-03-05 07:42:00,
2013-03-05 02:48:00,29.1,13.3,30.01,SE,142,8.7,14.5,51,0.00,,,0.00,VWS V14.01,2013-03-05 07:48:00,
2013-03-05 02:53:00,29.1,13.3,30.01,ENE,63,5.4,10.1,51,0.00,,,0.00,VWS V14.01,2013-03-05 07:53:00,
2013-03-05 02:59:00,29.1,13.3,30.01,NE,43,4.0,7.8,51,0.00,,,0.00,VWS V14.01,2013-03-05 07:59:00,
2013-03-05 03:04:00,29.1,13.3,30.01,East,93,5.4,10.1,51,0.00,,,0.00,VWS V14.01,2013-03-05 08:04:00,
2013-03-05 03:10:00,29.1,13.7,30.01,ESE,102,4.7,8.9,52,0.00,,,0.00,VWS V14.01,2013-03-05 08:10:00,
2013-03-05 03:16:00,29.1,13.3,30.01,ESE,110,4.0,10.1,51,0.00,,,0.00,VWS V14.01,2013-03-05 08:16:00,
2013-03-05 03:21:00,29.1,13.7,30.01,ESE,108,7.4,13.4,52,0.00,,,0.00,VWS V14.01,2013-03-05 08:21:00,
2013-03-05 03:27:00,29.1,13.3,30.01,East,84,4.7,14.5,51,0.00,,,0.00,VWS V14.01,2013-03-05 08:27:00,
2013-03-05 03:32:00,29.1,13.3,30.01,East,81,6.0,13.4,51,0.00,,,0.00,VWS V14.01,2013-03-05 08:32:00,
2013-03-05 03:37:00,29.1,13.3,30.01,ENE,69,5.4,12.3,51,0.00,,,0.00,VWS V14.01,2013-03-05 08:37:00,
2013-03-05 03:42:00,29.1,13.3,29.98,ESE,116,5.4,13.4,51,0.00,,,0.00,VWS V14.01,2013-03-05 08:42:00,
2013-03-05 03:47:00,29.1,13.3,29.98,East,94,3.4,7.8,51,0.00,,,0.00,VWS V14.01,2013-03-05 08:47:00,
2013-03-05 03:52:00,28.9,13.5,29.98,ENE,77,4.0,8.9,52,0.00,,,0.00,VWS V14.01,2013-03-05 08:52:00,
2013-03-05 03:57:00,28.9,13.5,29.98,East,87,4.7,12.3,52,0.00,,,0.00,VWS V14.01,2013-03-05 08:57:00,
2013-03-05 04:02:00,28.9,13.5,29.98,East,88,6.0,10.1,52,0.00,,,0.00,VWS V14.01,2013-03-05 09:02:00,
2013-03-05 04:08:00,28.9,13.1,29.98,ESE,112,9.4,15.7,51,0.00,,,0.00,VWS V14.01,2013-03-05 09:08:00,
2013-03-05 04:13:00,28.8,12.9,29.98,ESE,119,6.0,13.4,51,0.00,,,0.00,VWS V14.01,2013-03-05 09:13:00,
2013-03-05 04:19:00,28.8,12.9,29.98,ESE,121,6.0,15.7,51,0.00,,,0.00,VWS V14.01,2013-03-05 09:19:00,
2013-03-05 04:24:00,28.8,12.9,29.98,ESE,109,6.0,10.1,51,0.00,,,0.00,VWS V14.01,2013-03-05 09:24:00,
2013-03-05 04:30:00,28.8,12.9,29.98,ESE,118,8.7,15.7,51,0.00,,,0.00,VWS V14.01,2013-03-05 09:30:00,
2013-03-05 04:36:00,28.8,12.9,29.98,ESE,114,5.4,13.4,51,0.00,,,0.00,VWS V14.01,2013-03-05 09:36:00,
2013-03-05 04:41:00,28.8,12.9,29.98,ESE,102,8.1,15.7,51,0.00,,,0.00,VWS V14.01,2013-03-05 09:41:00,
2013-03-05 04:47:00,28.8,12.9,29.98,ESE,117,8.1,14.5,51,0.00,,,0.00,VWS V14.01,2013-03-05 09:47:00,
2013-03-05 04:52:00,28.8,12.9,29.98,East,82,8.1,13.4,51,0.00,,,0.00,VWS V14.01,2013-03-05 09:52:00,
2013-03-05 04:57:00,28.8,12.9,29.98,ESE,108,4.7,10.1,51,0.00,,,0.00,VWS V14.01,2013-03-05 09:57:00,
2013-03-05 05:02:00,28.8,12.9,29.98,ESE,112,8.7,15.7,51,0.00,,,0.00,VWS V14.01,2013-03-05 10:02:00,
2013-03-05 05:07:00,28.8,12.9,29.98,East,101,5.4,13.4,51,0.00,,,0.00,VWS V14.01,2013-03-05 10:07:00,
2013-03-05 05:12:00,28.8,12.9,29.98,East,100,6.0,19.0,51,0.00,,,0.00,VWS V14.01,2013-03-05 10:12:00,
2013-03-05 05:18:00,28.8,13.4,29.98,SE,146,8.7,14.5,52,0.00,,,0.00,VWS V14.01,2013-03-05 10:18:00,
2013-03-05 05:23:00,28.8,13.4,29.98,East,100,8.1,13.4,52,0.00,,,0.00,VWS V14.01,2013-03-05 10:23:00,
2013-03-05 05:28:00,28.8,13.4,29.98,East,101,7.4,14.5,52,0.00,,,0.00,VWS V14.01,2013-03-05 10:28:00,
2013-03-05 05:33:00,28.8,13.4,29.98,East,80,6.0,14.5,52,0.00,,,0.00,VWS V14.01,2013-03-05 10:33:00,
2013-03-05 05:38:00,28.8,12.9,29.98,ENE,76,6.0,10.1,51,0.00,,,0.00,VWS V14.01,2013-03-05 10:38:00,
2013-03-05 05:44:00,28.8,13.4,29.98,ESE,106,5.4,15.7,52,0.00,,,0.00,VWS V14.01,2013-03-05 10:44:00,
2013-03-05 05:50:00,28.8,13.4,29.98,ESE,119,4.7,13.4,52,0.00,,,0.00,VWS V14.01,2013-03-05 10:50:00,
2013-03-05 05:55:00,28.6,13.2,29.98,ESE,110,8.1,15.7,52,0.00,,,0.00,VWS V14.01,2013-03-05 10:55:00,
2013-03-05 06:01:00,28.6,13.2,29.98,East,93,8.1,14.5,52,0.00,,,0.00,VWS V14.01,2013-03-05 11:01:00,
2013-03-05 06:06:00,28.6,13.2,29.98,East,88,8.7,19.0,52,0.00,,,0.00,VWS V14.01,2013-03-05 11:06:00,
2013-03-05 06:11:00,28.4,13.5,29.95,East,84,9.4,15.7,53,0.00,,,0.00,VWS V14.01,2013-03-05 11:11:00,
2013-03-05 06:16:00,28.4,13.5,29.95,East,98,8.1,15.7,53,0.00,,,0.00,VWS V14.01,2013-03-05 11:16:00,
2013-03-05 06:21:00,28.4,13.5,29.95,East,100,6.0,14.5,53,0.00,,,0.00,VWS V14.01,2013-03-05 11:21:00,
2013-03-05 06:26:00,28.2,13.3,29.95,ENE,65,4.7,10.1,53,0.00,,,0.00,VWS V14.01,2013-03-05 11:26:00,
2013-03-05 06:31:00,28.2,12.9,29.95,ENE,77,7.4,14.5,52,0.00,,,0.00,VWS V14.01,2013-03-05 11:31:00,
2013-03-05 06:36:00,28.2,12.9,29.95,ESE,108,11.4,19.0,52,0.00,,,0.00,VWS V14.01,2013-03-05 11:36:00,
2013-03-05 06:42:00,28.2,13.3,29.95,ESE,119,5.4,19.0,53,0.00,,,0.00,VWS V14.01,2013-03-05 11:42:00,
2013-03-05 06:48:00,28.0,12.7,29.95,East,84,8.1,19.0,52,0.00,,,0.00,VWS V14.01,2013-03-05 11:48:00,
2013-03-05 06:53:00,28.0,13.1,29.95,ESE,107,13.1,21.8,53,0.00,,,0.00,VWS V14.01,2013-03-05 11:53:00,
2013-03-05 06:58:00,27.9,13.0,29.95,East,93,7.4,15.7,53,0.00,,,0.00,VWS V14.01,2013-03-05 11:58:00,
2013-03-05 07:03:00,27.9,13.0,29.95,NE,56,8.7,14.5,53,0.00,,,0.00,VWS V14.01,2013-03-05 12:03:00,
2013-03-05 07:08:00,27.7,12.8,29.95,East,86,10.1,20.1,53,0.00,,,0.00,VWS V14.01,2013-03-05 12:08:00,
2013-03-05 07:14:00,27.7,12.8,29.95,ESE,104,12.1,20.1,53,0.00,,,0.00,VWS V14.01,2013-03-05 12:14:00,
2013-03-05 07:19:00,27.7,12.8,29.95,ESE,118,8.7,24.0,53,0.00,,,0.00,VWS V14.01,2013-03-05 12:19:00,
2013-03-05 07:25:00,27.7,12.8,29.95,East,89,9.4,19.0,53,0.00,,,0.00,VWS V14.01,2013-03-05 12:25:00,
2013-03-05 07:31:00,27.7,12.8,29.95,ESE,109,8.1,19.0,53,0.00,,,0.00,VWS V14.01,2013-03-05 12:31:00,
2013-03-05 07:36:00,27.7,12.8,29.95,ENE,78,8.7,20.7,53,0.00,,,0.00,VWS V14.01,2013-03-05 12:36:00,
2013-03-05 07:41:00,27.7,12.8,29.95,East,99,12.4,20.7,53,0.00,,,0.00,VWS V14.01,2013-03-05 12:41:00,
2013-03-05 07:47:00,27.9,13.0,29.95,ESE,104,8.1,17.9,53,0.00,,,0.00,VWS V14.01,2013-03-05 12:47:00,
2013-03-05 07:52:00,27.9,13.0,29.95,East,91,6.0,13.4,53,0.00,,,0.00,VWS V14.01,2013-03-05 12:52:00,
2013-03-05 07:57:00,28.2,13.3,29.95,East,85,12.4,20.7,53,0.00,,,0.00,VWS V14.01,2013-03-05 12:57:00,
2013-03-05 08:03:00,28.2,13.3,29.95,ESE,109,8.1,14.5,53,0.00,,,0.00,VWS V14.01,2013-03-05 13:03:00,
2013-03-05 08:09:00,28.2,13.3,29.95,ESE,113,8.7,17.9,53,0.00,,,0.00,VWS V14.01,2013-03-05 13:09:00,
2013-03-05 08:15:00,28.4,13.5,29.95,East,86,8.7,15.7,53,0.00,,,0.00,VWS V14.01,2013-03-05 13:15:00,
2013-03-05 08:20:00,28.6,13.6,29.95,East,86,11.4,19.0,53,0.00,,,0.00,VWS V14.01,2013-03-05 13:20:00,
2013-03-05 08:26:00,28.6,13.2,29.95,East,86,6.0,21.8,52,0.00,,,0.00,VWS V14.01,2013-03-05 13:26:00,
2013-03-05 08:32:00,28.9,14.0,29.95,East,83,8.1,17.9,53,0.00,,,0.00,VWS V14.01,2013-03-05 13:32:00,
2013-03-05 08:37:00,28.9,13.5,29.95,East,93,8.7,15.7,52,0.00,,,0.00,VWS V14.01,2013-03-05 13:37:00,
2013-03-05 08:43:00,28.9,13.5,29.95,ESE,105,8.7,15.7,52,0.00,,,0.00,VWS V14.01,2013-03-05 13:43:00,
2013-03-05 08:49:00,29.1,14.1,29.95,SE,131,8.7,20.1,53,0.00,,,0.00,VWS V14.01,2013-03-05 13:49:00,
2013-03-05 08:56:00,29.1,13.7,29.95,ESE,106,11.4,19.0,52,0.00,,,0.00,VWS V14.01,2013-03-05 13:56:00,
2013-03-05 09:01:00,29.1,13.7,29.95,ESE,112,8.1,19.0,52,0.00,,,0.00,VWS V14.01,2013-03-05 14:01:00,
2013-03-05 09:07:00,29.5,14.5,29.95,East,88,8.1,15.7,53,0.00,,,0.00,VWS V14.01,2013-03-05 14:07:00,
2013-03-05 09:13:00,29.3,14.3,29.95,ESE,119,15.1,25.2,53,0.00,,,0.00,VWS V14.01,2013-03-05 14:13:00,
2013-03-05 09:18:00,29.5,14.5,29.95,East,91,8.7,16.8,53,0.00,,,0.00,VWS V14.01,2013-03-05 14:18:00,
2013-03-05 09:24:00,29.7,14.6,29.95,East,89,9.4,15.7,53,0.00,,,0.00,VWS V14.01,2013-03-05 14:24:00,
2013-03-05 09:29:00,29.5,14.5,29.92,ESE,110,12.1,20.1,53,0.00,,,0.00,VWS V14.01,2013-03-05 14:29:00,
2013-03-05 09:36:00,29.7,14.6,29.92,ESE,111,7.4,15.7,53,0.00,,,0.00,VWS V14.01,2013-03-05 14:36:00,
2013-03-05 09:42:00,29.8,14.8,29.92,East,95,8.7,14.5,53,0.00,,,0.00,VWS V14.01,2013-03-05 14:42:00,
2013-03-05 09:47:00,30.0,15.0,29.92,ESE,107,8.1,20.1,53,0.00,,,0.00,VWS V14.01,2013-03-05 14:47:00,
2013-03-05 09:53:00,29.8,14.4,29.92,ESE,119,8.7,15.7,52,0.00,,,0.00,VWS V14.01,2013-03-05 14:53:00,
2013-03-05 09:59:00,30.0,15.0,29.92,ESE,115,12.1,20.1,53,0.00,,,0.00,VWS V14.01,2013-03-05 14:59:00,
2013-03-05 10:04:00,30.0,15.0,29.92,East,99,7.4,13.4,53,0.00,,,0.00,VWS V14.01,2013-03-05 15:04:00,
2013-03-05 10:11:00,30.0,15.0,29.92,ENE,68,7.4,21.8,53,0.00,,,0.00,VWS V14.01,2013-03-05 15:11:00,
2013-03-05 10:17:00,29.7,14.2,29.92,East,88,6.0,14.5,52,0.00,,,0.00,VWS V14.01,2013-03-05 15:17:00,
2013-03-05 10:22:00,29.5,14.0,29.92,ESE,121,12.1,21.8,52,0.00,,,0.00,VWS V14.01,2013-03-05 15:22:00,
2013-03-05 10:28:00,29.5,14.5,29.92,ESE,112,8.1,16.8,53,0.00,,,0.00,VWS V14.01,2013-03-05 15:28:00,
2013-03-05 10:34:00,29.5,14.5,29.92,East,93,8.1,20.1,53,0.00,,,0.00,VWS V14.01,2013-03-05 15:34:00,
2013-03-05 10:41:00,29.7,14.6,29.92,SE,140,12.1,26.3,53,0.00,,,0.00,VWS V14.01,2013-03-05 15:41:00,
2013-03-05 10:47:00,29.7,14.6,29.92,East,98,13.1,25.2,53,0.00,,,0.00,VWS V14.01,2013-03-05 15:47:00,
2013-03-05 10:52:00,30.2,15.6,29.92,ESE,120,8.7,14.5,54,0.00,,,0.00,VWS V14.01,2013-03-05 15:52:00,
2013-03-05 10:58:00,30.9,15.8,29.92,ESE,116,13.1,21.8,53,0.00,,,0.00,VWS V14.01,2013-03-05 15:58:00,
2013-03-05 11:03:00,30.9,15.4,29.92,ESE,120,12.4,21.8,52,0.00,,,0.00,VWS V14.01,2013-03-05 16:03:00,
2013-03-05 11:09:00,31.8,16.2,29.92,ENE,68,12.1,20.1,52,0.00,,,0.00,VWS V14.01,2013-03-05 16:09:00,
2013-03-05 11:16:00,31.6,16.0,29.92,ESE,114,8.7,19.0,52,0.00,,,0.00,VWS V14.01,2013-03-05 16:16:00,
2013-03-05 11:22:00,31.1,15.5,29.92,ESE,120,8.7,15.7,52,0.00,,,0.00,VWS V14.01,2013-03-05 16:22:00,
2013-03-05 11:27:00,31.1,15.5,29.92,ENE,59,5.4,15.7,52,0.00,,,0.00,VWS V14.01,2013-03-05 16:27:00,
2013-03-05 11:33:00,30.6,15.0,29.92,East,88,8.1,20.1,52,0.00,,,0.00,VWS V14.01,2013-03-05 16:33:00,
2013-03-05 11:38:00,30.6,15.5,29.92,East,88,6.0,19.0,53,0.00,,,0.00,VWS V14.01,2013-03-05 16:38:00,
2013-03-05 11:44:00,30.9,15.8,29.92,East,97,8.7,15.7,53,0.00,,,0.00,VWS V14.01,2013-03-05 16:44:00,
2013-03-05 11:50:00,30.7,15.2,29.92,East,82,9.4,15.7,52,0.00,,,0.00,VWS V14.01,2013-03-05 16:50:00,
2013-03-05 11:56:00,32.0,16.8,29.92,ESE,114,8.7,19.0,53,0.00,,,0.00,VWS V14.01,2013-03-05 16:56:00,
2013-03-05 12:02:00,32.4,16.7,29.92,ESE,103,8.7,15.7,52,0.00,,,0.00,VWS V14.01,2013-03-05 17:02:00,
2013-03-05 12:07:00,31.8,16.2,29.92,East,100,7.4,20.7,52,0.00,,,0.00,VWS V14.01,2013-03-05 17:07:00,
2013-03-05 12:12:00,31.6,16.0,29.89,East,86,9.4,15.7,52,0.00,,,0.00,VWS V14.01,2013-03-05 17:12:00,
2013-03-05 12:17:00,32.0,16.4,29.89,ESE,115,14.4,24.0,52,0.00,,,0.00,VWS V14.01,2013-03-05 17:17:00,
2013-03-05 12:23:00,32.0,16.4,29.89,NNE,33,8.1,15.7,52,0.00,,,0.00,VWS V14.01,2013-03-05 17:23:00,
2013-03-05 12:29:00,32.0,16.4,29.89,ESE,112,7.4,14.5,52,0.00,,,0.00,VWS V14.01,2013-03-05 17:29:00,
2013-03-05 12:34:00,32.0,16.4,29.89,SE,126,10.1,16.8,52,0.00,,,0.00,VWS V14.01,2013-03-05 17:34:00,
2013-03-05 12:40:00,32.0,16.4,29.89,East,84,8.7,14.5,52,0.00,,,0.00,VWS V14.01,2013-03-05 17:40:00,
2013-03-05 12:46:00,32.0,16.4,29.89,East,83,8.1,20.1,52,0.00,,,0.00,VWS V14.01,2013-03-05 17:46:00,
2013-03-05 12:52:00,32.0,16.4,29.89,ENE,71,5.4,15.7,52,0.00,,,0.00,VWS V14.01,2013-03-05 17:52:00,
2013-03-05 12:58:00,32.0,16.4,29.86,ENE,74,9.4,15.7,52,0.00,,,0.00,VWS V14.01,2013-03-05 17:58:00,
2013-03-05 13:03:00,32.2,16.1,29.86,ENE,64,8.7,19.0,51,0.00,,,0.00,VWS V14.01,2013-03-05 18:03:00,
2013-03-05 13:08:00,32.2,16.1,29.86,SSE,153,8.1,15.7,51,0.00,,,0.00,VWS V14.01,2013-03-05 18:08:00,
2013-03-05 13:13:00,32.2,16.1,29.86,East,99,8.7,14.5,51,0.00,,,0.00,VWS V14.01,2013-03-05 18:13:00,
2013-03-05 13:19:00,32.2,16.1,29.86,ESE,111,6.0,20.1,51,0.00,,,0.00,VWS V14.01,2013-03-05 18:19:00,
2013-03-05 13:24:00,32.2,16.1,29.86,East,91,5.4,13.4,51,0.00,,,0.00,VWS V14.01,2013-03-05 18:24:00,
2013-03-05 13:29:00,32.2,16.1,29.86,ENE,78,6.0,14.5,51,0.00,,,0.00,VWS V14.01,2013-03-05 18:29:00,
2013-03-05 13:34:00,32.2,16.1,29.86,East,90,8.7,30.8,51,0.00,,,0.00,VWS V14.01,2013-03-05 18:34:00,
2013-03-05 13:41:00,32.4,15.8,29.83,ENE,70,9.4,16.8,50,0.00,,,0.00,VWS V14.01,2013-03-05 18:41:00,
2013-03-05 13:47:00,32.7,16.6,29.83,ENE,78,13.1,21.8,51,0.00,,,0.00,VWS V14.01,2013-03-05 18:47:00,
2013-03-05 13:53:00,32.2,15.6,29.83,ENE,73,7.4,14.5,50,0.00,,,0.00,VWS V14.01,2013-03-05 18:53:00,
2013-03-05 13:58:00,32.2,16.1,29.83,ENE,77,8.7,19.0,51,0.00,,,0.00,VWS V14.01,2013-03-05 18:58:00,
2013-03-05 14:04:00,32.0,15.9,29.83,East,87,6.0,15.7,51,0.00,,,0.00,VWS V14.01,2013-03-05 19:04:00,
2013-03-05 14:10:00,32.0,16.4,29.83,ENE,74,8.7,14.5,52,0.00,,,0.00,VWS V14.01,2013-03-05 19:10:00,
2013-03-05 14:16:00,31.5,15.9,29.83,ESE,112,8.7,25.2,52,0.00,,,0.00,VWS V14.01,2013-03-05 19:16:00,
2013-03-05 14:22:00,31.5,16.8,29.83,NNE,26,8.1,14.5,54,0.00,,,0.00,VWS V14.01,2013-03-05 19:22:00,
2013-03-05 14:27:00,32.2,17.8,29.83,ENE,77,4.7,12.3,55,0.00,,,0.00,VWS V14.01,2013-03-05 19:27:00,
2013-03-05 14:33:00,32.5,17.8,29.83,ENE,78,8.7,15.7,54,0.00,,,0.00,VWS V14.01,2013-03-05 19:33:00,
2013-03-05 14:39:00,31.8,16.6,29.80,East,99,8.7,15.7,53,0.00,,,0.00,VWS V14.01,2013-03-05 19:39:00,
2013-03-05 14:44:00,31.3,16.6,29.80,East,89,9.4,15.7,54,0.00,,,0.00,VWS V14.01,2013-03-05 19:44:00,
2013-03-05 14:52:00,31.1,16.4,29.80,ESE,106,11.4,19.0,54,0.00,,,0.00,VWS V14.01,2013-03-05 19:52:00,
2013-03-05 14:57:00,30.9,16.2,29.80,East,88,8.7,14.5,54,0.00,,,0.00,VWS V14.01,2013-03-05 19:57:00,
2013-03-05 15:03:00,30.7,16.5,29.80,East,86,8.1,19.0,55,0.00,,,0.00,VWS V14.01,2013-03-05 20:03:00,
2013-03-05 15:08:00,30.9,17.5,29.80,East,96,7.4,15.7,57,0.00,,,0.00,VWS V14.01,2013-03-05 20:08:00,
2013-03-05 15:14:00,30.6,17.6,29.80,ENE,77,8.7,17.9,58,0.00,,,0.00,VWS V14.01,2013-03-05 20:14:00,
2013-03-05 15:21:00,30.4,17.0,29.80,East,95,7.4,15.7,57,0.00,,,0.00,VWS V14.01,2013-03-05 20:21:00,
2013-03-05 15:26:00,30.7,17.7,29.80,ENE,77,8.1,19.0,58,0.00,,,0.00,VWS V14.01,2013-03-05 20:26:00,
2013-03-05 15:32:00,30.9,17.9,29.80,East,86,9.4,15.7,58,0.00,,,0.00,VWS V14.01,2013-03-05 20:32:00,
2013-03-05 15:37:00,30.9,17.9,29.80,NE,56,7.4,15.7,58,0.00,,,0.00,VWS V14.01,2013-03-05 20:37:00,
2013-03-05 15:42:00,31.1,18.1,29.80,ENE,61,8.1,13.4,58,0.00,,,0.00,VWS V14.01,2013-03-05 20:42:00,
2013-03-05 15:48:00,30.9,17.9,29.80,NNE,29,6.0,13.4,58,0.00,,,0.00,VWS V14.01,2013-03-05 20:48:00,
2013-03-05 15:53:00,30.9,18.3,29.80,East,81,9.4,15.7,59,0.00,,,0.00,VWS V14.01,2013-03-05 20:53:00,
2013-03-05 15:58:00,30.7,18.1,29.80,ENE,75,8.7,15.7,59,0.00,,,0.00,VWS V14.01,2013-03-05 20:58:00,
2013-03-05 16:03:00,30.4,18.2,29.80,East,88,6.0,13.4,60,0.00,,,0.00,VWS V14.01,2013-03-05 21:03:00,
2013-03-05 16:09:00,30.2,18.4,29.80,NNE,27,9.4,15.7,61,0.00,,,0.00,VWS V14.01,2013-03-05 21:09:00,
2013-03-05 16:14:00,30.2,18.4,29.80,ESE,103,6.0,13.4,61,0.00,,,0.00,VWS V14.01,2013-03-05 21:14:00,
2013-03-05 16:21:00,30.2,18.4,29.80,ENE,69,7.4,12.3,61,0.00,,,0.00,VWS V14.01,2013-03-05 21:21:00,
2013-03-05 16:27:00,30.0,18.6,29.80,ESE,113,7.4,14.5,62,0.00,,,0.00,VWS V14.01,2013-03-05 21:27:00,
2013-03-05 16:32:00,30.0,18.6,29.80,ENE,63,5.4,10.1,62,0.00,,,0.00,VWS V14.01,2013-03-05 21:32:00,
2013-03-05 16:38:00,30.2,19.1,29.80,ENE,70,5.4,13.4,63,0.00,,,0.00,VWS V14.01,2013-03-05 21:38:00,
2013-03-05 16:44:00,30.6,19.5,29.80,East,81,6.0,10.1,63,0.00,,,0.00,VWS V14.01,2013-03-05 21:44:00,
2013-03-05 16:49:00,30.4,19.7,29.80,ENE,67,6.0,11.2,64,0.00,,,0.00,VWS V14.01,2013-03-05 21:49:00,
2013-03-05 16:56:00,30.2,19.9,29.80,East,81,4.7,10.1,65,0.00,,,0.00,VWS V14.01,2013-03-05 21:56:00,
2013-03-05 17:02:00,30.4,20.0,29.80,NE,52,8.7,14.5,65,0.00,,,0.00,VWS V14.01,2013-03-05 22:02:00,
2013-03-05 17:07:00,30.6,20.2,29.80,East,80,5.4,13.4,65,0.00,,,0.00,VWS V14.01,2013-03-05 22:07:00,
2013-03-05 17:13:00,30.6,20.2,29.80,NNE,27,12.4,20.7,65,0.00,,,0.00,VWS V14.01,2013-03-05 22:13:00,
2013-03-05 17:19:00,30.4,20.4,29.80,NE,38,16.4,28.5,66,0.00,,,0.00,VWS V14.01,2013-03-05 22:19:00,
2013-03-05 17:26:00,30.4,21.1,29.80,NE,46,6.0,15.7,68,0.00,,,0.00,VWS V14.01,2013-03-05 22:26:00,
2013-03-05 17:31:00,30.6,21.3,29.80,NNE,32,5.4,13.4,68,0.00,,,0.00,VWS V14.01,2013-03-05 22:31:00,
2013-03-05 17:36:00,30.6,21.6,29.80,NE,41,15.1,26.3,69,0.00,,,0.00,VWS V14.01,2013-03-05 22:36:00,
2013-03-05 17:41:00,30.9,21.6,29.80,NE,40,9.4,15.7,68,0.00,,,0.00,VWS V14.01,2013-03-05 22:41:00,
2013-03-05 17:46:00,31.1,21.4,29.80,NNE,31,21.8,41.9,67,0.00,,,0.00,VWS V14.01,2013-03-05 22:46:00,
2013-03-05 17:52:00,31.5,21.1,29.80,ENE,62,6.0,27.4,65,0.00,,,0.00,VWS V14.01,2013-03-05 22:52:00,
2013-03-05 17:57:00,31.5,21.1,29.80,ENE,76,4.7,12.3,65,0.00,,,0.00,VWS V14.01,2013-03-05 22:57:00,
2013-03-05 18:02:00,31.5,21.1,29.80,ENE,76,8.7,14.5,65,0.00,,,0.00,VWS V14.01,2013-03-05 23:02:00,
2013-03-05 18:07:00,31.3,20.5,29.80,NNE,19,17.8,42.5,64,0.00,,,0.00,VWS V14.01,2013-03-05 23:07:00,
2013-03-05 18:13:00,31.5,20.3,29.80,ENE,61,18.5,30.8,63,0.00,,,0.00,VWS V14.01,2013-03-05 23:13:00,
2013-03-05 18:19:00,31.3,20.5,29.80,NE,36,11.4,25.2,64,0.00,,,0.00,VWS V14.01,2013-03-05 23:19:00,
2013-03-05 18:24:00,31.1,20.4,29.80,East,92,11.4,19.0,64,0.00,,,0.00,VWS V14.01,2013-03-05 23:24:00,
2013-03-05 18:30:00,30.7,21.1,29.80,NNE,27,12.1,29.6,67,0.00,,,0.00,VWS V14.01,2013-03-05 23:30:00,
2013-03-05 18:36:00,30.6,21.6,29.80,ENE,74,9.4,19.0,69,0.00,,,0.00,VWS V14.01,2013-03-05 23:36:00,
2013-03-05 18:41:00,30.4,22.1,29.80,NNE,33,11.4,20.7,71,0.00,,,0.00,VWS V14.01,2013-03-05 23:41:00,
2013-03-05 18:47:00,30.2,22.3,29.80,NNE,23,8.7,22.9,72,0.00,,,0.00,VWS V14.01,2013-03-05 23:47:00,
2013-03-05 18:52:00,30.2,22.6,29.80,NE,41,8.1,20.1,73,0.00,,,0.00,VWS V14.01,2013-03-05 23:52:00,
2013-03-05 18:58:00,30.2,22.9,29.80,NNE,26,11.4,19.0,74,0.00,,,0.00,VWS V14.01,2013-03-05 23:58:00,
2013-03-05 19:03:00,30.0,23.1,29.80,NE,48,6.7,20.7,75,0.00,,,0.00,VWS V14.01,2013-03-06 00:03:00,
2013-03-05 19:09:00,29.7,23.4,29.80,NNE,30,11.4,19.0,77,0.00,,,0.00,VWS V14.01,2013-03-06 00:09:00,
2013-03-05 19:14:00,29.7,23.6,29.80,NE,47,9.4,21.8,78,0.00,,,0.00,VWS V14.01,2013-03-06 00:14:00,
2013-03-05 19:19:00,29.7,24.3,29.80,NNE,29,15.1,25.2,80,0.00,,,0.00,VWS V14.01,2013-03-06 00:19:00,
2013-03-05 19:26:00,29.5,24.1,29.83,NNE,25,8.7,22.9,80,0.00,,,0.00,VWS V14.01,2013-03-06 00:26:00,
2013-03-05 19:31:00,29.5,24.4,29.83,NNE,17,13.1,24.0,81,0.00,,,0.00,VWS V14.01,2013-03-06 00:31:00,
2013-03-05 19:37:00,29.5,24.7,29.83,NNE,33,13.1,26.3,82,0.00,,,0.00,VWS V14.01,2013-03-06 00:37:00,
2013-03-05 19:42:00,29.5,25.0,29.83,NNE,24,9.4,31.9,83,0.00,,,0.00,VWS V14.01,2013-03-06 00:42:00,
2013-03-05 19:47:00,29.3,25.1,29.83,NNE,12,8.1,26.3,84,0.00,,,0.00,VWS V14.01,2013-03-06 00:47:00,
2013-03-05 19:52:00,29.1,24.9,29.83,NNE,29,20.5,34.1,84,0.00,,,0.00,VWS V14.01,2013-03-06 00:52:00,
2013-03-05 19:58:00,29.1,25.2,29.83,NNE,20,12.1,20.1,85,0.00,,,0.00,VWS V14.01,2013-03-06 00:58:00,
2013-03-05 20:03:00,29.1,25.5,29.83,NNW,346,8.7,17.9,86,0.00,,,0.00,VWS V14.01,2013-03-06 01:03:00,
2013-03-05 20:09:00,28.9,25.3,29.83,North,6,13.1,21.8,86,0.00,,,0.00,VWS V14.01,2013-03-06 01:09:00,
2013-03-05 20:16:00,28.8,25.1,29.83,NNE,27,16.4,33.0,86,0.00,,,0.00,VWS V14.01,2013-03-06 01:16:00,
2013-03-05 20:22:00,28.8,25.4,29.83,NNE,29,21.1,35.2,87,0.00,,,0.00,VWS V14.01,2013-03-06 01:22:00,
2013-03-05 20:28:00,28.6,25.2,29.83,NNE,32,21.1,35.2,87,0.00,,,0.00,VWS V14.01,2013-03-06 01:28:00,
2013-03-05 20:33:00,28.6,25.2,29.80,NNE,25,8.7,26.3,87,0.00,,,0.00,VWS V14.01,2013-03-06 01:33:00,
2013-03-05 20:39:00,28.6,25.2,29.80,NNE,30,15.8,43.6,87,0.00,,,0.00,VWS V14.01,2013-03-06 01:39:00,
2013-03-05 20:45:00,28.4,25.3,29.80,NE,36,12.1,38.6,88,0.00,,,0.00,VWS V14.01,2013-03-06 01:45:00,
2013-03-05 20:51:00,28.2,25.1,29.80,NNE,17,12.1,38.6,88,0.00,,,0.00,VWS V14.01,2013-03-06 01:51:00,
2013-03-05 20:56:00,28.2,25.4,29.80,NNE,15,22.5,38.6,89,0.00,,,0.00,VWS V14.01,2013-03-06 01:56:00,
2013-03-05 21:01:00,28.0,25.2,29.80,North,9,11.4,28.5,89,0.00,,,0.00,VWS V14.01,2013-03-06 02:01:00,
2013-03-05 21:07:00,27.9,25.0,29.80,NNE,16,13.1,38.6,89,0.00,,,0.00,VWS V14.01,2013-03-06 02:07:00,
2013-03-05 21:12:00,27.9,25.0,29.83,NNE,18,16.4,27.4,89,0.00,,,0.00,VWS V14.01,2013-03-06 02:12:00,
2013-03-05 21:18:00,27.9,25.0,29.83,NNE,22,13.1,33.0,89,0.00,,,0.00,VWS V14.01,2013-03-06 02:18:00,
2013-03-05 21:23:00,27.9,25.3,29.83,NNE,30,19.8,35.2,90,0.00,,,0.00,VWS V14.01,2013-03-06 02:23:00,
2013-03-05 21:29:00,27.7,25.1,29.83,NNE,27,13.1,21.8,90,0.00,,,0.00,VWS V14.01,2013-03-06 02:29:00,
2013-03-05 21:35:00,27.5,25.0,29.83,NNE,16,23.2,50.3,90,0.00,,,0.00,VWS V14.01,2013-03-06 02:35:00,
2013-03-05 21:41:00,27.5,25.0,29.83,NNE,25,6.0,31.9,90,0.00,,,0.00,VWS V14.01,2013-03-06 02:41:00,
2013-03-05 21:47:00,27.5,25.0,29.83,NNE,20,9.4,38.6,90,0.00,,,0.00,VWS V14.01,2013-03-06 02:47:00,
2013-03-05 21:52:00,27.3,24.8,29.83,North,9,16.4,27.4,90,0.00,,,0.00,VWS V14.01,2013-03-06 02:52:00,
2013-03-05 21:57:00,27.3,24.8,29.83,NNE,16,9.4,20.1,90,0.00,,,0.00,VWS V14.01,2013-03-06 02:57:00,
2013-03-05 22:02:00,27.3,24.8,29.83,NNE,14,12.4,20.7,90,0.00,,,0.00,VWS V14.01,2013-03-06 03:02:00,
2013-03-05 22:07:00,27.3,24.8,29.83,North,11,16.4,33.0,90,0.00,,,0.00,VWS V14.01,2013-03-06 03:07:00,
2013-03-05 22:13:00,27.1,24.9,29.83,North,8,9.4,33.0,91,0.00,,,0.00,VWS V14.01,2013-03-06 03:13:00,
2013-03-05 22:18:00,27.1,24.9,29.83,NNE,17,16.4,27.4,91,0.00,,,0.00,VWS V14.01,2013-03-06 03:18:00,
2013-03-05 22:24:00,27.0,24.7,29.83,NNE,30,20.5,39.7,91,0.00,,,0.00,VWS V14.01,2013-03-06 03:24:00,
2013-03-05 22:29:00,27.0,24.7,29.83,NNE,16,15.1,30.8,91,0.00,,,0.00,VWS V14.01,2013-03-06 03:29:00,
2013-03-05 22:34:00,27.0,24.7,29.83,NE,36,9.4,21.8,91,0.00,,,0.00,VWS V14.01,2013-03-06 03:34:00,
2013-03-05 22:40:00,27.0,24.7,29.83,NNE,18,4.7,24.0,91,0.00,,,0.00,VWS V14.01,2013-03-06 03:40:00,
2013-03-05 22:46:00,26.8,24.5,29.86,North,357,8.1,22.9,91,0.00,,,0.00,VWS V14.01,2013-03-06 03:46:00,
2013-03-05 22:52:00,26.6,24.3,29.86,NNE,20,19.1,38.6,91,0.00,,,0.00,VWS V14.01,2013-03-06 03:52:00,
2013-03-05 22:57:00,26.4,24.1,29.86,NE,35,15.1,38.6,91,0.00,,,0.00,VWS V14.01,2013-03-06 03:57:00,
2013-03-05 23:03:00,26.4,24.1,29.86,NNE,24,13.1,24.0,91,0.00,,,0.00,VWS V14.01,2013-03-06 04:03:00,
2013-03-05 23:08:00,26.4,24.1,29.86,North,6,7.4,26.3,91,0.00,,,0.00,VWS V14.01,2013-03-06 04:08:00,
2013-03-05 23:14:00,26.6,24.3,29.86,North,357,6.0,25.2,91,0.00,,,0.00,VWS V14.01,2013-03-06 04:14:00,
2013-03-05 23:21:00,26.6,24.1,29.86,NNE,21,19.1,48.1,90,0.00,,,0.00,VWS V14.01,2013-03-06 04:21:00,
2013-03-05 23:26:00,26.6,24.1,29.86,North,5,8.1,20.1,90,0.00,,,0.00,VWS V14.01,2013-03-06 04:26:00,
2013-03-05 23:32:00,26.6,24.1,29.86,NE,37,9.4,31.9,90,0.00,,,0.00,VWS V14.01,2013-03-06 04:32:00,
2013-03-05 23:37:00,26.6,23.8,29.86,North,9,8.1,13.4,89,0.00,,,0.00,VWS V14.01,2013-03-06 04:37:00,
2013-03-05 23:42:00,26.6,23.8,29.86,NNE,19,6.0,16.8,89,0.00,,,0.00,VWS V14.01,2013-03-06 04:42:00,
2013-03-05 23:47:00,26.6,23.8,29.86,NE,48,15.1,26.3,89,0.00,,,0.00,VWS V14.01,2013-03-06 04:47:00,
2013-03-05 23:52:00,26.4,23.4,29.86,NNE,20,7.4,19.0,88,0.00,,,0.00,VWS V14.01,2013-03-06 04:52:00,
2013-03-05 23:58:00,26.4,23.4,29.86,NNE,12,10.7,17.9,88,0.00,,,0.00,VWS V14.01,2013-03-06 04:58:00,